Year,Month,Day,Hour,Minute,Value (Times are PST for temperature in C)
2012,10,06,00,00,6.80
2012,10,06,00,01,6.80
2012,10,06,00,02,6.80
2012,10,06,00,03,6.80
2012,10,06,00,04,6.80
2012,10,06,00,05,6.80
2012,10,06,00,06,6.80
2012,10,06,00,07,6.80
2012,10,06,00,08,6.70
2012,10,06,00,09,6.70
2012,10,06,00,10,6.70
2012,10,06,00,11,6.70
2012,10,06,00,12,6.70
2012,10,06,00,13,6.70
2012,10,06,00,14,6.70
2012,10,06,00,15,6.70
2012,10,06,00,16,6.60
2012,10,06,00,17,6.70
2012,10,06,00,18,6.60
2012,10,06,00,19,6.60
2012,10,06,00,20,6.60
2012,10,06,00,21,6.60
2012,10,06,00,22,6.60
2012,10,06,00,23,6.60
2012,10,06,00,24,6.60
2012,10,06,00,25,6.60
2012,10,06,00,26,6.60
2012,10,06,00,27,6.60
2012,10,06,00,28,6.60
2012,10,06,00,29,6.60
2012,10,06,00,30,6.50
2012,10,06,00,31,6.50
2012,10,06,00,32,6.50
2012,10,06,00,33,6.50
2012,10,06,00,34,6.50
2012,10,06,00,35,6.50
2012,10,06,00,36,6.50
2012,10,06,00,37,6.40
2012,10,06,00,38,6.40
2012,10,06,00,39,6.40
2012,10,06,00,40,6.40
2012,10,06,00,41,6.40
2012,10,06,00,42,6.40
2012,10,06,00,43,6.40
2012,10,06,00,44,6.40
2012,10,06,00,45,6.30
2012,10,06,00,46,6.30
2012,10,06,00,47,6.30
2012,10,06,00,48,6.40
2012,10,06,00,49,6.30
2012,10,06,00,50,6.40
2012,10,06,00,51,6.30
2012,10,06,00,52,6.30
2012,10,06,00,53,6.30
2012,10,06,00,54,6.30
2012,10,06,00,55,6.30
2012,10,06,00,56,6.30
2012,10,06,00,57,6.30
2012,10,06,00,58,6.30
2012,10,06,00,59,6.30
2012,10,06,01,00,6.30
2012,10,06,01,01,6.30
2012,10,06,01,02,6.20
2012,10,06,01,03,6.20
2012,10,06,01,04,6.20
2012,10,06,01,05,6.20
2012,10,06,01,06,6.20
2012,10,06,01,07,6.20
2012,10,06,01,08,6.10
2012,10,06,01,09,6.10
2012,10,06,01,10,6.10
2012,10,06,01,11,6.10
2012,10,06,01,12,6.10
2012,10,06,01,13,6.10
2012,10,06,01,14,6.20
2012,10,06,01,15,6.20
2012,10,06,01,16,6.20
2012,10,06,01,17,6.20
2012,10,06,01,18,6.20
2012,10,06,01,19,6.10
2012,10,06,01,20,6.10
2012,10,06,01,21,6.10
2012,10,06,01,22,6.10
2012,10,06,01,23,6.10
2012,10,06,01,24,6.10
2012,10,06,01,25,6.10
2012,10,06,01,26,6.10
2012,10,06,01,27,6.10
2012,10,06,01,28,6.10
2012,10,06,01,29,6.10
2012,10,06,01,30,6.10
2012,10,06,01,31,6.10
2012,10,06,01,32,6.10
2012,10,06,01,33,6.00
2012,10,06,01,34,6.00
2012,10,06,01,35,6.00
2012,10,06,01,36,6.00
2012,10,06,01,37,6.00
2012,10,06,01,38,6.00
2012,10,06,01,39,6.00
2012,10,06,01,40,6.00
2012,10,06,01,41,6.00
2012,10,06,01,42,6.10
2012,10,06,01,43,6.10
2012,10,06,01,44,6.10
2012,10,06,01,45,6.10
2012,10,06,01,46,6.20
2012,10,06,01,47,6.20
2012,10,06,01,48,6.20
2012,10,06,01,49,6.20
2012,10,06,01,50,6.20
2012,10,06,01,51,6.20
2012,10,06,01,52,6.20
2012,10,06,01,53,6.10
2012,10,06,01,54,6.10
2012,10,06,01,55,6.10
2012,10,06,01,56,6.10
2012,10,06,01,57,6.10
2012,10,06,01,58,6.10
2012,10,06,01,59,6.00
2012,10,06,02,00,6.00
2012,10,06,02,01,6.00
2012,10,06,02,02,6.00
2012,10,06,02,03,6.00
2012,10,06,02,04,6.00
2012,10,06,02,05,5.90
2012,10,06,02,06,5.90
2012,10,06,02,07,5.90
2012,10,06,02,08,5.90
2012,10,06,02,09,5.90
2012,10,06,02,10,5.90
2012,10,06,02,11,6.00
2012,10,06,02,12,6.00
2012,10,06,02,13,6.00
2012,10,06,02,14,6.10
2012,10,06,02,15,6.10
2012,10,06,02,16,6.10
2012,10,06,02,17,6.10
2012,10,06,02,18,6.10
2012,10,06,02,19,6.10
2012,10,06,02,20,6.20
2012,10,06,02,21,6.20
2012,10,06,02,22,6.20
2012,10,06,02,23,6.20
2012,10,06,02,24,6.20
2012,10,06,02,25,6.20
2012,10,06,02,26,6.20
2012,10,06,02,27,6.30
2012,10,06,02,28,6.30
2012,10,06,02,29,6.30
2012,10,06,02,30,6.40
2012,10,06,02,31,6.40
2012,10,06,02,32,6.40
2012,10,06,02,33,6.50
2012,10,06,02,34,6.50
2012,10,06,02,35,6.60
2012,10,06,02,36,6.60
2012,10,06,02,37,6.60
2012,10,06,02,38,6.60
2012,10,06,02,39,6.70
2012,10,06,02,40,6.70
2012,10,06,02,41,6.70
2012,10,06,02,42,6.70
2012,10,06,02,43,6.70
2012,10,06,02,44,6.70
2012,10,06,02,45,6.70
2012,10,06,02,46,6.70
2012,10,06,02,47,6.70
2012,10,06,02,48,6.70
2012,10,06,02,49,6.70
2012,10,06,02,50,6.60
2012,10,06,02,51,6.60
2012,10,06,02,52,6.60
2012,10,06,02,53,6.60
2012,10,06,02,54,6.50
2012,10,06,02,55,6.50
2012,10,06,02,56,6.50
2012,10,06,02,57,6.50
2012,10,06,02,58,6.50
2012,10,06,02,59,6.50
2012,10,06,03,00,6.50
2012,10,06,03,01,6.50
2012,10,06,03,02,6.50
2012,10,06,03,03,6.50
2012,10,06,03,04,6.50
2012,10,06,03,05,6.50
2012,10,06,03,06,6.50
2012,10,06,03,07,6.50
2012,10,06,03,08,6.50
2012,10,06,03,09,6.60
2012,10,06,03,10,6.60
2012,10,06,03,11,6.60
2012,10,06,03,12,6.60
2012,10,06,03,13,6.60
2012,10,06,03,14,6.60
2012,10,06,03,15,6.60
2012,10,06,03,16,6.70
2012,10,06,03,17,6.70
2012,10,06,03,18,6.70
2012,10,06,03,19,6.80
2012,10,06,03,20,6.80
2012,10,06,03,21,6.80
2012,10,06,03,22,6.80
2012,10,06,03,23,6.80
2012,10,06,03,24,6.70
2012,10,06,03,25,6.70
2012,10,06,03,26,6.70
2012,10,06,03,27,6.60
2012,10,06,03,28,6.60
2012,10,06,03,29,6.60
2012,10,06,03,30,6.60
2012,10,06,03,31,6.50
2012,10,06,03,32,6.50
2012,10,06,03,33,6.50
2012,10,06,03,34,6.40
2012,10,06,03,35,6.40
2012,10,06,03,36,6.40
2012,10,06,03,37,6.30
2012,10,06,03,38,6.30
2012,10,06,03,39,6.30
2012,10,06,03,40,6.30
2012,10,06,03,41,6.30
2012,10,06,03,42,6.20
2012,10,06,03,43,6.20
2012,10,06,03,44,6.20
2012,10,06,03,45,6.20
2012,10,06,03,46,6.20
2012,10,06,03,47,6.10
2012,10,06,03,48,6.10
2012,10,06,03,49,6.10
2012,10,06,03,50,6.00
2012,10,06,03,51,6.00
2012,10,06,03,52,6.00
2012,10,06,03,53,6.00
2012,10,06,03,54,6.00
2012,10,06,03,55,6.00
2012,10,06,03,56,6.00
2012,10,06,03,57,6.00
2012,10,06,03,58,5.90
2012,10,06,03,59,5.90
2012,10,06,04,00,5.90
2012,10,06,04,01,5.90
2012,10,06,04,02,5.90
2012,10,06,04,03,5.80
2012,10,06,04,04,5.80
2012,10,06,04,05,5.80
2012,10,06,04,06,5.90
2012,10,06,04,07,5.80
2012,10,06,04,08,5.90
2012,10,06,04,09,5.90
2012,10,06,04,10,5.90
2012,10,06,04,11,5.90
2012,10,06,04,12,5.80
2012,10,06,04,13,5.80
2012,10,06,04,14,5.80
2012,10,06,04,15,5.80
2012,10,06,04,16,5.80
2012,10,06,04,17,5.80
2012,10,06,04,18,5.80
2012,10,06,04,19,5.80
2012,10,06,04,20,5.80
2012,10,06,04,21,5.80
2012,10,06,04,22,5.80
2012,10,06,04,23,5.70
2012,10,06,04,24,5.70
2012,10,06,04,25,5.70
2012,10,06,04,26,5.70
2012,10,06,04,27,5.70
2012,10,06,04,28,5.70
2012,10,06,04,29,5.70
2012,10,06,04,30,5.70
2012,10,06,04,31,5.70
2012,10,06,04,32,5.60
2012,10,06,04,33,5.60
2012,10,06,04,34,5.60
2012,10,06,04,35,5.60
2012,10,06,04,36,5.60
2012,10,06,04,37,5.60
2012,10,06,04,38,5.60
2012,10,06,04,39,5.50
2012,10,06,04,40,5.50
2012,10,06,04,41,5.50
2012,10,06,04,42,5.40
2012,10,06,04,43,5.40
2012,10,06,04,44,5.40
2012,10,06,04,45,5.40
2012,10,06,04,46,5.40
2012,10,06,04,47,5.40
2012,10,06,04,48,5.40
2012,10,06,04,49,5.40
2012,10,06,04,50,5.30
2012,10,06,04,51,5.30
2012,10,06,04,52,5.30
2012,10,06,04,53,5.30
2012,10,06,04,54,5.30
2012,10,06,04,55,5.30
2012,10,06,04,56,5.30
2012,10,06,04,57,5.30
2012,10,06,04,58,5.30
2012,10,06,04,59,5.30
2012,10,06,05,00,5.30
2012,10,06,05,01,5.30
2012,10,06,05,02,5.30
2012,10,06,05,03,5.30
2012,10,06,05,04,5.30
2012,10,06,05,05,5.30
2012,10,06,05,06,5.30
2012,10,06,05,07,5.30
2012,10,06,05,08,5.30
2012,10,06,05,09,5.30
2012,10,06,05,10,5.30
2012,10,06,05,11,5.40
2012,10,06,05,12,5.40
2012,10,06,05,13,5.40
2012,10,06,05,14,5.40
2012,10,06,05,15,5.40
2012,10,06,05,16,5.40
2012,10,06,05,17,5.40
2012,10,06,05,18,5.50
2012,10,06,05,19,5.50
2012,10,06,05,20,5.50
2012,10,06,05,21,5.50
2012,10,06,05,22,5.60
2012,10,06,05,23,5.60
2012,10,06,05,24,5.60
2012,10,06,05,25,5.60
2012,10,06,05,26,5.60
2012,10,06,05,27,5.50
2012,10,06,05,28,5.50
2012,10,06,05,29,5.50
2012,10,06,05,30,5.40
2012,10,06,05,31,5.40
2012,10,06,05,32,5.40
2012,10,06,05,33,5.40
2012,10,06,05,34,5.30
2012,10,06,05,35,5.30
2012,10,06,05,36,5.30
2012,10,06,05,37,5.30
2012,10,06,05,38,5.30
2012,10,06,05,39,5.30
2012,10,06,05,40,5.30
2012,10,06,05,41,5.30
2012,10,06,05,42,5.20
2012,10,06,05,43,5.20
2012,10,06,05,44,5.20
2012,10,06,05,45,5.20
2012,10,06,05,46,5.20
2012,10,06,05,47,5.20
2012,10,06,05,48,5.20
2012,10,06,05,49,5.20
2012,10,06,05,50,5.20
2012,10,06,05,51,5.30
2012,10,06,05,52,5.30
2012,10,06,05,53,5.30
2012,10,06,05,54,5.30
2012,10,06,05,55,5.30
2012,10,06,05,56,5.30
2012,10,06,05,57,5.20
2012,10,06,05,58,5.20
2012,10,06,05,59,5.20
2012,10,06,06,00,5.20
2012,10,06,06,01,5.20
2012,10,06,06,02,5.20
2012,10,06,06,03,5.20
2012,10,06,06,04,5.20
2012,10,06,06,05,5.20
2012,10,06,06,06,5.20
2012,10,06,06,07,5.20
2012,10,06,06,08,5.20
2012,10,06,06,09,5.20
2012,10,06,06,10,5.30
2012,10,06,06,11,5.30
2012,10,06,06,12,5.30
2012,10,06,06,13,5.30
2012,10,06,06,14,5.30
2012,10,06,06,15,5.30
2012,10,06,06,16,5.30
2012,10,06,06,17,5.30
2012,10,06,06,18,5.40
2012,10,06,06,19,5.40
2012,10,06,06,20,5.40
2012,10,06,06,21,5.30
2012,10,06,06,22,5.30
2012,10,06,06,23,5.30
2012,10,06,06,24,5.30
2012,10,06,06,25,5.30
2012,10,06,06,26,5.30
2012,10,06,06,27,5.30
2012,10,06,06,28,5.30
2012,10,06,06,29,5.30
2012,10,06,06,30,5.30
2012,10,06,06,31,5.30
2012,10,06,06,32,5.30
2012,10,06,06,33,5.30
2012,10,06,06,34,5.30
2012,10,06,06,35,5.30
2012,10,06,06,36,5.30
2012,10,06,06,37,5.30
2012,10,06,06,38,5.30
2012,10,06,06,39,5.30
2012,10,06,06,40,5.30
2012,10,06,06,41,5.20
2012,10,06,06,42,5.20
2012,10,06,06,43,5.10
2012,10,06,06,44,5.10
2012,10,06,06,45,5.10
2012,10,06,06,46,5.10
2012,10,06,06,47,5.00
2012,10,06,06,48,5.10
2012,10,06,06,49,5.10
2012,10,06,06,50,5.10
2012,10,06,06,51,5.10
2012,10,06,06,52,5.20
2012,10,06,06,53,5.20
2012,10,06,06,54,5.20
2012,10,06,06,55,5.20
2012,10,06,06,56,5.30
2012,10,06,06,57,5.30
2012,10,06,06,58,5.30
2012,10,06,06,59,5.30
2012,10,06,07,00,5.30
2012,10,06,07,01,5.30
2012,10,06,07,02,5.30
2012,10,06,07,03,5.20
2012,10,06,07,04,5.20
2012,10,06,07,05,5.10
2012,10,06,07,06,5.10
2012,10,06,07,07,5.10
2012,10,06,07,08,5.10
2012,10,06,07,09,5.10
2012,10,06,07,10,5.10
2012,10,06,07,11,5.10
2012,10,06,07,12,5.20
2012,10,06,07,13,5.20
2012,10,06,07,14,5.20
2012,10,06,07,15,5.20
2012,10,06,07,16,5.20
2012,10,06,07,17,5.20
2012,10,06,07,18,5.20
2012,10,06,07,19,5.10
2012,10,06,07,20,5.10
2012,10,06,07,21,5.10
2012,10,06,07,22,5.10
2012,10,06,07,23,5.10
2012,10,06,07,24,5.10
2012,10,06,07,25,5.10
2012,10,06,07,26,5.10
2012,10,06,07,27,5.20
2012,10,06,07,28,5.20
2012,10,06,07,29,5.20
2012,10,06,07,30,5.20
2012,10,06,07,31,5.20
2012,10,06,07,32,5.20
2012,10,06,07,33,5.20
2012,10,06,07,34,5.20
2012,10,06,07,35,5.10
2012,10,06,07,36,5.10
2012,10,06,07,37,5.10
2012,10,06,07,38,5.00
2012,10,06,07,39,5.00
2012,10,06,07,40,5.00
2012,10,06,07,41,5.00
2012,10,06,07,42,5.00
2012,10,06,07,43,5.00
2012,10,06,07,44,5.00
2012,10,06,07,45,5.00
2012,10,06,07,46,4.90
2012,10,06,07,47,4.90
2012,10,06,07,48,4.90
2012,10,06,07,49,4.90
2012,10,06,07,50,4.90
2012,10,06,07,51,4.90
2012,10,06,07,52,4.90
2012,10,06,07,53,5.00
2012,10,06,07,54,5.10
2012,10,06,07,55,5.10
2012,10,06,07,56,5.10
2012,10,06,07,57,5.00
2012,10,06,07,58,5.00
2012,10,06,07,59,5.00
2012,10,06,08,00,5.00
2012,10,06,08,01,4.90
2012,10,06,08,02,4.90
2012,10,06,08,03,4.90
2012,10,06,08,04,4.80
2012,10,06,08,05,4.80
2012,10,06,08,06,4.80
2012,10,06,08,07,4.80
2012,10,06,08,08,4.80
2012,10,06,08,09,4.70
2012,10,06,08,10,4.70
2012,10,06,08,11,4.70
2012,10,06,08,12,4.70
2012,10,06,08,13,4.70
2012,10,06,08,14,4.70
2012,10,06,08,15,4.70
2012,10,06,08,16,4.70
2012,10,06,08,17,4.70
2012,10,06,08,18,4.70
2012,10,06,08,19,4.70
2012,10,06,08,20,4.70
2012,10,06,08,21,4.70
2012,10,06,08,22,4.70
2012,10,06,08,23,4.70
2012,10,06,08,24,4.70
2012,10,06,08,25,4.70
2012,10,06,08,26,4.70
2012,10,06,08,27,4.70
2012,10,06,08,28,4.70
2012,10,06,08,29,4.70
2012,10,06,08,30,4.70
2012,10,06,08,31,4.70
2012,10,06,08,32,4.70
2012,10,06,08,33,4.70
2012,10,06,08,34,4.70
2012,10,06,08,35,4.70
2012,10,06,08,36,4.70
2012,10,06,08,37,4.70
2012,10,06,08,38,4.70
2012,10,06,08,39,4.70
2012,10,06,08,40,4.70
2012,10,06,08,41,4.70
2012,10,06,08,42,4.70
2012,10,06,08,43,4.70
2012,10,06,08,44,4.80
2012,10,06,08,45,4.80
2012,10,06,08,46,4.80
2012,10,06,08,47,4.80
2012,10,06,08,48,4.80
2012,10,06,08,49,4.80
2012,10,06,08,50,4.80
2012,10,06,08,51,4.80
2012,10,06,08,52,4.90
2012,10,06,08,53,4.90
2012,10,06,08,54,4.90
2012,10,06,08,55,4.90
2012,10,06,08,56,4.90
2012,10,06,08,57,4.80
2012,10,06,08,58,4.80
2012,10,06,08,59,4.80
2012,10,06,09,00,4.80
2012,10,06,09,01,4.80
2012,10,06,09,02,4.80
2012,10,06,09,03,4.80
2012,10,06,09,04,4.90
2012,10,06,09,05,4.90
2012,10,06,09,06,4.90
2012,10,06,09,07,4.90
2012,10,06,09,08,4.90
2012,10,06,09,09,4.80
2012,10,06,09,10,4.80
2012,10,06,09,11,4.80
2012,10,06,09,12,4.80
2012,10,06,09,13,4.80
2012,10,06,09,14,4.80
2012,10,06,09,15,4.80
2012,10,06,09,16,4.80
2012,10,06,09,17,4.80
2012,10,06,09,18,4.80
2012,10,06,09,19,4.80
2012,10,06,09,20,4.80
2012,10,06,09,21,4.80
2012,10,06,09,22,4.80
2012,10,06,09,23,4.80
2012,10,06,09,24,4.90
2012,10,06,09,25,4.90
2012,10,06,09,26,4.90
2012,10,06,09,27,4.90
2012,10,06,09,28,4.90
2012,10,06,09,29,4.90
2012,10,06,09,30,4.90
2012,10,06,09,31,4.90
2012,10,06,09,32,4.90
2012,10,06,09,33,4.90
2012,10,06,09,34,4.90
2012,10,06,09,35,4.90
2012,10,06,09,36,4.90
2012,10,06,09,37,4.90
2012,10,06,09,38,4.90
2012,10,06,09,39,5.00
2012,10,06,09,40,5.00
2012,10,06,09,41,5.00
2012,10,06,09,42,4.90
2012,10,06,09,43,5.00
2012,10,06,09,44,5.00
2012,10,06,09,45,5.00
2012,10,06,09,46,5.00
2012,10,06,09,47,5.00
2012,10,06,09,48,5.10
2012,10,06,09,49,5.10
2012,10,06,09,50,5.10
2012,10,06,09,51,5.10
2012,10,06,09,52,5.10
2012,10,06,09,53,5.20
2012,10,06,09,54,5.20
2012,10,06,09,55,5.30
2012,10,06,09,56,5.30
2012,10,06,09,57,5.40
2012,10,06,09,58,5.40
2012,10,06,09,59,5.50
2012,10,06,10,00,5.50
2012,10,06,10,01,5.60
2012,10,06,10,02,5.60
2012,10,06,10,03,5.60
2012,10,06,10,04,5.60
2012,10,06,10,05,5.60
2012,10,06,10,06,5.60
2012,10,06,10,07,5.60
2012,10,06,10,08,5.60
2012,10,06,10,09,5.70
2012,10,06,10,10,5.70
2012,10,06,10,11,5.80
2012,10,06,10,12,5.80
2012,10,06,10,13,5.90
2012,10,06,10,14,5.90
2012,10,06,10,15,5.90
2012,10,06,10,16,5.90
2012,10,06,10,17,6.00
2012,10,06,10,18,6.10
2012,10,06,10,19,6.20
2012,10,06,10,20,6.30
2012,10,06,10,21,6.30
2012,10,06,10,22,6.30
2012,10,06,10,23,6.30
2012,10,06,10,24,6.40
2012,10,06,10,25,6.50
2012,10,06,10,26,6.60
2012,10,06,10,27,6.70
2012,10,06,10,28,6.80
2012,10,06,10,29,6.90
2012,10,06,10,30,6.90
2012,10,06,10,31,7.00
2012,10,06,10,32,7.10
2012,10,06,10,33,7.20
2012,10,06,10,34,7.20
2012,10,06,10,35,7.30
2012,10,06,10,36,7.40
2012,10,06,10,37,7.50
2012,10,06,10,38,7.60
2012,10,06,10,39,7.60
2012,10,06,10,40,7.70
2012,10,06,10,41,7.70
2012,10,06,10,42,7.80
2012,10,06,10,43,7.80
2012,10,06,10,44,7.90
2012,10,06,10,45,7.90
2012,10,06,10,46,8.00
2012,10,06,10,47,8.00
2012,10,06,10,48,8.00
2012,10,06,10,49,8.10
2012,10,06,10,50,8.10
2012,10,06,10,51,8.10
2012,10,06,10,52,8.20
2012,10,06,10,53,8.20
2012,10,06,10,54,8.30
2012,10,06,10,55,8.40
2012,10,06,10,56,8.50
2012,10,06,10,57,8.60
2012,10,06,10,58,8.70
2012,10,06,10,59,8.80
2012,10,06,11,00,8.90
2012,10,06,11,01,9.00
2012,10,06,11,02,9.10
2012,10,06,11,03,9.10
2012,10,06,11,04,9.20
2012,10,06,11,05,9.30
2012,10,06,11,06,9.50
2012,10,06,11,07,9.60
2012,10,06,11,08,9.80
2012,10,06,11,09,10.00
2012,10,06,11,10,10.10
2012,10,06,11,11,10.30
2012,10,06,11,12,10.40
2012,10,06,11,13,10.50
2012,10,06,11,14,10.60
2012,10,06,11,15,10.70
2012,10,06,11,16,10.80
2012,10,06,11,17,10.90
2012,10,06,11,18,11.00
2012,10,06,11,19,11.10
2012,10,06,11,20,11.10
2012,10,06,11,21,11.30
2012,10,06,11,22,11.30
2012,10,06,11,23,11.50
2012,10,06,11,24,11.60
2012,10,06,11,25,11.70
2012,10,06,11,26,11.80
2012,10,06,11,27,11.90
2012,10,06,11,28,12.00
2012,10,06,11,29,12.20
2012,10,06,11,30,12.30
2012,10,06,11,31,12.40
2012,10,06,11,32,12.40
2012,10,06,11,33,12.50
2012,10,06,11,34,12.60
2012,10,06,11,35,12.80
2012,10,06,11,36,12.90
2012,10,06,11,37,13.00
2012,10,06,11,38,13.10
2012,10,06,11,39,13.20
2012,10,06,11,40,13.30
2012,10,06,11,41,13.40
2012,10,06,11,42,13.60
2012,10,06,11,43,13.70
2012,10,06,11,44,13.80
2012,10,06,11,45,13.90
2012,10,06,11,46,14.00
2012,10,06,11,47,14.10
2012,10,06,11,48,14.10
2012,10,06,11,49,14.20
2012,10,06,11,50,14.30
2012,10,06,11,51,14.30
2012,10,06,11,52,14.40
2012,10,06,11,53,14.50
2012,10,06,11,54,14.60
2012,10,06,11,55,14.60
2012,10,06,11,56,14.70
2012,10,06,11,57,14.80
2012,10,06,11,58,14.80
2012,10,06,11,59,14.90
2012,10,06,12,00,15.10
2012,10,06,12,01,15.20
2012,10,06,12,02,15.20
2012,10,06,12,03,15.30
2012,10,06,12,04,15.40
2012,10,06,12,05,15.50
2012,10,06,12,06,15.60
2012,10,06,12,07,15.70
2012,10,06,12,08,15.80
2012,10,06,12,09,16.00
2012,10,06,12,10,16.10
2012,10,06,12,11,16.20
2012,10,06,12,12,16.30
2012,10,06,12,13,16.40
2012,10,06,12,14,16.60
2012,10,06,12,15,16.70
2012,10,06,12,16,16.70
2012,10,06,12,17,16.80
2012,10,06,12,18,16.90
2012,10,06,12,19,16.90
2012,10,06,12,20,17.00
2012,10,06,12,21,17.10
2012,10,06,12,22,17.10
2012,10,06,12,23,17.10
2012,10,06,12,24,17.10
2012,10,06,12,25,17.10
2012,10,06,12,26,17.00
2012,10,06,12,27,16.90
2012,10,06,12,28,16.90
2012,10,06,12,29,16.80
2012,10,06,12,30,16.70
2012,10,06,12,31,16.70
2012,10,06,12,32,16.70
2012,10,06,12,33,16.70
2012,10,06,12,34,16.70
2012,10,06,12,35,16.70
2012,10,06,12,36,16.70
2012,10,06,12,37,16.70
2012,10,06,12,38,16.70
2012,10,06,12,39,16.70
2012,10,06,12,40,16.70
2012,10,06,12,41,16.80
2012,10,06,12,42,16.80
2012,10,06,12,43,16.90
2012,10,06,12,44,16.90
2012,10,06,12,45,16.90
2012,10,06,12,46,16.90
2012,10,06,12,47,16.90
2012,10,06,12,48,16.90
2012,10,06,12,49,16.90
2012,10,06,12,50,16.90
2012,10,06,12,51,16.80
2012,10,06,12,52,16.80
2012,10,06,12,53,16.80
2012,10,06,12,54,16.90
2012,10,06,12,55,16.90
2012,10,06,12,56,16.90
2012,10,06,12,57,17.00
2012,10,06,12,58,17.00
2012,10,06,12,59,17.00
2012,10,06,13,00,16.90
2012,10,06,13,01,16.90
2012,10,06,13,02,16.90
2012,10,06,13,03,16.80
2012,10,06,13,04,16.70
2012,10,06,13,05,16.60
2012,10,06,13,06,16.60
2012,10,06,13,07,16.70
2012,10,06,13,08,16.70
2012,10,06,13,09,16.70
2012,10,06,13,10,16.80
2012,10,06,13,11,16.80
2012,10,06,13,12,16.80
2012,10,06,13,13,16.90
2012,10,06,13,14,16.90
2012,10,06,13,15,17.00
2012,10,06,13,16,16.90
2012,10,06,13,17,17.00
2012,10,06,13,18,17.00
2012,10,06,13,19,17.00
2012,10,06,13,20,17.00
2012,10,06,13,21,17.00
2012,10,06,13,22,17.10
2012,10,06,13,23,17.10
2012,10,06,13,24,17.20
2012,10,06,13,25,17.30
2012,10,06,13,26,17.30
2012,10,06,13,27,17.40
2012,10,06,13,28,17.40
2012,10,06,13,29,17.40
2012,10,06,13,30,17.40
2012,10,06,13,31,17.40
2012,10,06,13,32,17.40
2012,10,06,13,33,17.40
2012,10,06,13,34,17.40
2012,10,06,13,35,17.30
2012,10,06,13,36,17.30
2012,10,06,13,37,17.30
2012,10,06,13,38,17.30
2012,10,06,13,39,17.20
2012,10,06,13,40,17.20
2012,10,06,13,41,17.20
2012,10,06,13,42,17.30
2012,10,06,13,43,17.30
2012,10,06,13,44,17.40
2012,10,06,13,45,17.40
2012,10,06,13,46,17.40
2012,10,06,13,47,17.40
2012,10,06,13,48,17.50
2012,10,06,13,49,17.50
2012,10,06,13,50,17.60
2012,10,06,13,51,17.60
2012,10,06,13,52,17.60
2012,10,06,13,53,17.60
2012,10,06,13,54,17.70
2012,10,06,13,55,17.70
2012,10,06,13,56,17.70
2012,10,06,13,57,17.80
2012,10,06,13,58,17.80
2012,10,06,13,59,17.80
2012,10,06,14,00,17.80
2012,10,06,14,01,17.80
2012,10,06,14,02,17.80
2012,10,06,14,03,17.80
2012,10,06,14,04,17.80
2012,10,06,14,05,17.80
2012,10,06,14,06,17.80
2012,10,06,14,07,17.80
2012,10,06,14,08,17.90
2012,10,06,14,09,17.90
2012,10,06,14,10,18.00
2012,10,06,14,11,18.10
2012,10,06,14,12,18.10
2012,10,06,14,13,18.20
2012,10,06,14,14,18.30
2012,10,06,14,15,18.40
2012,10,06,14,16,18.50
2012,10,06,14,17,18.50
2012,10,06,14,18,18.60
2012,10,06,14,19,18.60
2012,10,06,14,20,18.70
2012,10,06,14,21,18.70
2012,10,06,14,22,18.80
2012,10,06,14,23,18.80
2012,10,06,14,24,18.80
2012,10,06,14,25,18.90
2012,10,06,14,26,18.90
2012,10,06,14,27,19.00
2012,10,06,14,28,19.10
2012,10,06,14,29,19.10
2012,10,06,14,30,19.10
2012,10,06,14,31,19.20
2012,10,06,14,32,19.20
2012,10,06,14,33,19.30
2012,10,06,14,34,19.30
2012,10,06,14,35,19.40
2012,10,06,14,36,19.40
2012,10,06,14,37,19.50
2012,10,06,14,38,19.40
2012,10,06,14,39,19.40
2012,10,06,14,40,19.40
2012,10,06,14,41,19.40
2012,10,06,14,42,19.40
2012,10,06,14,43,19.40
2012,10,06,14,44,19.50
2012,10,06,14,45,19.50
2012,10,06,14,46,19.40
2012,10,06,14,47,19.40
2012,10,06,14,48,19.30
2012,10,06,14,49,19.20
2012,10,06,14,50,19.10
2012,10,06,14,51,19.00
2012,10,06,14,52,18.90
2012,10,06,14,53,18.90
2012,10,06,14,54,18.90
2012,10,06,14,55,18.90
2012,10,06,14,56,18.90
2012,10,06,14,57,18.90
2012,10,06,14,58,18.90
2012,10,06,14,59,19.00
2012,10,06,15,00,19.00
2012,10,06,15,01,19.00
2012,10,06,15,02,19.00
2012,10,06,15,03,19.00
2012,10,06,15,04,19.10
2012,10,06,15,05,19.10
2012,10,06,15,06,19.10
2012,10,06,15,07,19.20
2012,10,06,15,08,19.20
2012,10,06,15,09,19.30
2012,10,06,15,10,19.30
2012,10,06,15,11,19.30
2012,10,06,15,12,19.30
2012,10,06,15,13,19.30
2012,10,06,15,14,19.30
2012,10,06,15,15,19.30
2012,10,06,15,16,19.30
2012,10,06,15,17,19.20
2012,10,06,15,18,19.20
2012,10,06,15,19,19.10
2012,10,06,15,20,19.10
2012,10,06,15,21,19.10
2012,10,06,15,22,19.10
2012,10,06,15,23,19.10
2012,10,06,15,24,19.10
2012,10,06,15,25,19.10
2012,10,06,15,26,19.10
2012,10,06,15,27,19.20
2012,10,06,15,28,19.20
2012,10,06,15,29,19.20
2012,10,06,15,30,19.20
2012,10,06,15,31,19.30
2012,10,06,15,32,19.30
2012,10,06,15,33,19.30
2012,10,06,15,34,19.30
2012,10,06,15,35,19.30
2012,10,06,15,36,19.40
2012,10,06,15,37,19.50
2012,10,06,15,38,19.50
2012,10,06,15,39,19.60
2012,10,06,15,40,19.60
2012,10,06,15,41,19.70
2012,10,06,15,42,19.80
2012,10,06,15,43,19.90
2012,10,06,15,44,20.00
2012,10,06,15,45,20.10
2012,10,06,15,46,20.30
2012,10,06,15,47,20.30
2012,10,06,15,48,20.30
2012,10,06,15,49,20.30
2012,10,06,15,50,20.20
2012,10,06,15,51,20.20
2012,10,06,15,52,20.20
2012,10,06,15,53,20.20
2012,10,06,15,54,20.20
2012,10,06,15,55,20.20
2012,10,06,15,56,20.20
2012,10,06,15,57,20.20
2012,10,06,15,58,20.30
2012,10,06,15,59,20.30
2012,10,06,16,00,20.40
2012,10,06,16,01,20.40
2012,10,06,16,02,20.50
2012,10,06,16,03,20.60
2012,10,06,16,04,20.60
2012,10,06,16,05,20.70
2012,10,06,16,06,20.70
2012,10,06,16,07,20.80
2012,10,06,16,08,20.80
2012,10,06,16,09,20.80
2012,10,06,16,10,20.80
2012,10,06,16,11,20.80
2012,10,06,16,12,20.80
2012,10,06,16,13,20.80
2012,10,06,16,14,20.80
2012,10,06,16,15,20.90
2012,10,06,16,16,20.90
2012,10,06,16,17,20.90
2012,10,06,16,18,20.80
2012,10,06,16,19,20.80
2012,10,06,16,20,20.70
2012,10,06,16,21,20.70
2012,10,06,16,22,20.70
2012,10,06,16,23,20.70
2012,10,06,16,24,20.60
2012,10,06,16,25,20.60
2012,10,06,16,26,20.60
2012,10,06,16,27,20.60
2012,10,06,16,28,20.60
2012,10,06,16,29,20.60
2012,10,06,16,30,20.60
2012,10,06,16,31,20.60
2012,10,06,16,32,20.70
2012,10,06,16,33,20.70
2012,10,06,16,34,20.70
2012,10,06,16,35,20.80
2012,10,06,16,36,20.80
2012,10,06,16,37,20.80
2012,10,06,16,38,20.80
2012,10,06,16,39,20.80
2012,10,06,16,40,20.90
2012,10,06,16,41,20.80
2012,10,06,16,42,20.80
2012,10,06,16,43,20.80
2012,10,06,16,44,20.80
2012,10,06,16,45,20.80
2012,10,06,16,46,20.80
2012,10,06,16,47,20.80
2012,10,06,16,48,20.80
2012,10,06,16,49,20.80
2012,10,06,16,50,20.80
2012,10,06,16,51,20.80
2012,10,06,16,52,20.80
2012,10,06,16,53,20.80
2012,10,06,16,54,20.80
2012,10,06,16,55,20.80
2012,10,06,16,56,20.80
2012,10,06,16,57,20.80
2012,10,06,16,58,20.80
2012,10,06,16,59,20.80
2012,10,06,17,00,20.80
2012,10,06,17,01,20.80
2012,10,06,17,02,20.80
2012,10,06,17,03,20.80
2012,10,06,17,04,20.80
2012,10,06,17,05,20.80
2012,10,06,17,06,20.90
2012,10,06,17,07,20.90
2012,10,06,17,08,20.90
2012,10,06,17,09,20.80
2012,10,06,17,10,20.60
2012,10,06,17,11,20.50
2012,10,06,17,12,20.40
2012,10,06,17,13,20.20
2012,10,06,17,14,20.10
2012,10,06,17,15,19.80
2012,10,06,17,16,19.60
2012,10,06,17,17,19.40
2012,10,06,17,18,19.20
2012,10,06,17,19,19.00
2012,10,06,17,20,18.80
2012,10,06,17,21,18.60
2012,10,06,17,22,18.40
2012,10,06,17,23,18.20
2012,10,06,17,24,18.00
2012,10,06,17,25,17.80
2012,10,06,17,26,17.60
2012,10,06,17,27,17.50
2012,10,06,17,28,17.30
2012,10,06,17,29,17.10
2012,10,06,17,30,17.00
2012,10,06,17,31,16.90
2012,10,06,17,32,16.80
2012,10,06,17,33,16.70
2012,10,06,17,34,16.60
2012,10,06,17,35,16.50
2012,10,06,17,36,16.50
2012,10,06,17,37,16.40
2012,10,06,17,38,16.40
2012,10,06,17,39,16.30
2012,10,06,17,40,16.30
2012,10,06,17,41,16.30
2012,10,06,17,42,16.30
2012,10,06,17,43,16.20
2012,10,06,17,44,16.20
2012,10,06,17,45,16.10
2012,10,06,17,46,16.10
2012,10,06,17,47,16.00
2012,10,06,17,48,15.90